Weather in Zimstan

Russia / Komi Republic     61°15′33″N   53°51′40″E
temp.,
°C
wind,
m/s
gust,
m/s
humid.,
%
clouds,
%
prec.,
mm/h
press.,
hPa
HPBL,
m
18 may, tue
tue1800:00+13nne378797 0.2 1017588
03:00+9nnw269615 0.2 1020252
06:00+12nne35720 0.0 1021527
09:00+16nne34500 0.0 10211046
12:00+20nne33350 0.0 10221486
15:00+21ene22325 0.0 10221605
18:00+19e124334 0.0 102263
21:00+13ese11605 0.0 102310
19 may, wed
wed1900:00+11se1170100 0.0 102311
03:00+10s2274100 0.0 102418
06:00+16s25607 0.0 1023295
09:00+20ssw34435 0.0 10231095
12:00+24ssw343355 0.0 10211621
15:00+25ssw34319 0.0 10201735
18:00+22ssw36415 0.0 1020279
21:00+16ssw24625 0.0 102069
20 may, thu
thu2000:00+14sw25695 0.0 102081
03:00+12sw24764 0.0 102065
06:00+18sw36550 0.0 1020265
09:00+23sw34373 0.0 10191262
12:00+26sw34275 0.0 10181864
15:00+27ssw33254 0.0 10172006
18:00+24s25360 0.0 1016201
21:00+17sse22515 0.0 101611
21 may, fri
fri2100:00+14s25640 0.0 101681
03:00+13s23691 0.0 101556
06:00+18s36550 0.0 1015316
09:00+24s47360 0.0 10131476
12:00+26s69280 0.0 10112449
15:00+26ssw693284 0.0 10092929
18:00+16ssw1591100 5.9 1010189
21:00+15s398985 6.3 1010222
22 may, sat
sat2200:00+14s41388100 0.0 1009431
03:00+13ssw411936 0.0 1010376
06:00+15sw488564 0.0 1010625
09:00+14wsw488695 0.5 1011797
12:00+17w4852100 0.4 10121625
15:00+21w6102857 0.4 10123166
18:00+18w410366 0.0 10132020
21:00+13wsw311520 0.0 1015353